Weather History for KTOR - April, 2013

Change the Weather History Date:

Wednesday, April 10, 2013

  Actual Average Record
Temperature  
Mean Temperature 17 °F 45 °F  
Max Temperature 25 °F 59 °F 79 °F (2006)
Min Temperature 9 °F 31 °F 9 °F (2013)
Degree Days  
Heating Degree Days 48 20  
Month to date heating degree days 236 215  
Since 1 July heating degree days 5701 5899  
Cooling Degree Days 0 0  
Month to date cooling degree days 0 0  
Year to date cooling degree days 0 0  
Moisture  
Dew Point 11 °F    
Average Humidity 76    
Maximum Humidity 92    
Minimum Humidity 60    
Precipitation  
Precipitation 0.02 in 0.06 in 0.38 in (2001)
Month to date precipitation 0.23 0.40  
Year to date precipitation 0.77 1.75  
Sea Level Pressure  
Sea Level Pressure 30.19 in    
Wind  
Wind Speed 9 mph (NW)    
Max Wind Speed 20 mph    
Max Gust Speed 23 mph    
Visibility 7 miles    
Events Snow    
T = Trace of Precipitation, MM = Missing Value Source: NWS Daily Summary

Daily Weather History Graph

Daily Weather History Graph

Search for Another Location

Airport or City:

Trip Planner

Search our weather history database for the weather conditions in past years. The results will help you decide how hot, cold, wet, or windy it might be!

Date:

Astronomy

Apr. 10, 2013 Rise Set
Actual Time 6:23 AM MDT 7:32 PM MDT
Civil Twilight 5:55 AM MDT 8:01 PM MDT
Nautical Twilight 5:20 AM MDT 8:35 PM MDT
Astronomical Twilight 4:44 AM MDT 9:12 PM MDT
Moon 6:20 AM MDT (4/10) 8:11 PM MDT (4/10)
Length of Visible Light 14h 06m
Length of Day
13h 08m
New Moon, 0% of the Moon is Illuminated
Apr 10
New Moon
Apr 18
First Quarter
Apr 25
Full
May 2
Last Quarter
May 9
New

Hourly Weather History & Observations

Time (MDT) Temp. Windchill Dew Point Humidity Pressure Visibility Wind Dir Wind Speed Gust Speed Precip Events Conditions
12:53 AM 14.0 °F 1.2 °F 9.0 °F 80% 30.38 in 6.0 mi NW 10.4 mph - 0.00 in Snow Light Snow
1:53 AM 12.9 °F 3.8 °F 10.0 °F 88% 30.38 in 3.0 mi WNW 5.8 mph - 0.00 in Snow Light Snow
1:57 AM 12.2 °F 2.9 °F 10.4 °F 92% 30.18 in 2.5 mi WNW 5.8 mph - 0.00 in Snow Light Snow
2:20 AM 12.2 °F 1.7 °F 10.4 °F 92% 30.17 in 1.5 mi WNW 6.9 mph - 0.00 in Snow Light Snow
2:53 AM 12.9 °F 1.6 °F 10.0 °F 88% 30.33 in 1.2 mi WNW 8.1 mph - 0.00 in Snow Light Snow
3:23 AM 12.2 °F -1.0 °F 10.4 °F 92% 30.14 in 2.0 mi NW 10.4 mph - 0.01 in Snow Light Snow
3:48 AM 12.2 °F -1.8 °F 10.4 °F 92% 30.13 in 3.0 mi WNW 11.5 mph - 0.01 in Snow Light Snow
3:53 AM 12.9 °F -1.6 °F 10.0 °F 88% 30.32 in 4.0 mi WNW 12.7 mph - 0.01 in Snow Light Snow
4:14 AM 12.2 °F -0.2 °F 8.6 °F 85% 30.14 in 2.5 mi NW 9.2 mph - 0.00 in Snow Light Snow
4:24 AM 12.2 °F 0.7 °F 8.6 °F 85% 30.13 in 3.0 mi WNW 8.1 mph - 0.00 in Snow Light Snow
4:37 AM 12.2 °F -0.2 °F 8.6 °F 85% 30.13 in 2.5 mi NW 9.2 mph - 0.00 in Snow Light Snow
4:53 AM 12.9 °F 0.7 °F 10.0 °F 88% 30.33 in 2.0 mi NW 9.2 mph - 0.00 in Snow Light Snow
5:18 AM 12.2 °F 0.7 °F 10.4 °F 92% 30.13 in 4.0 mi NW 8.1 mph - 0.00 in Snow Light Snow
5:53 AM 12.9 °F -2.2 °F 10.0 °F 88% 30.32 in 4.0 mi NW 13.8 mph - 0.00 in Snow Light Snow
6:53 AM 12.9 °F -0.2 °F 9.0 °F 84% 30.32 in 10.0 mi WNW 10.4 mph - 0.00 in   Overcast
7:53 AM 14.0 °F 1.2 °F 7.0 °F 74% 30.33 in 10.0 mi NW 10.4 mph - N/A   Mostly Cloudy
8:53 AM 15.1 °F 1.8 °F 7.0 °F 70% 30.34 in 10.0 mi NW 11.5 mph - N/A   Partly Cloudy
9:53 AM 17.1 °F 2.0 °F 9.0 °F 71% 30.31 in 10.0 mi NNW 16.1 mph - N/A   Partly Cloudy
11:53 AM 21.0 °F 7.1 °F 12.0 °F 68% 30.28 in 10.0 mi NNW 16.1 mph 20.7 mph N/A   Clear
1:53 PM 24.1 °F 12.0 °F 12.9 °F 62% 30.23 in 10.0 mi NNW 13.8 mph - N/A   Partly Cloudy
2:53 PM 25.0 °F 12.6 °F 14.0 °F 63% 30.21 in 10.0 mi NNW 15.0 mph 21.9 mph N/A   Overcast
3:07 PM 24.8 °F 11.9 °F 12.2 °F 59% 30.04 in 10.0 mi NNW 16.1 mph - N/A   Overcast
3:18 PM 24.8 °F 11.5 °F 14.0 °F 64% 30.03 in 10.0 mi NNW 17.3 mph - N/A   Overcast
3:43 PM 24.8 °F 12.9 °F 14.0 °F 64% 30.02 in 10.0 mi NW 13.8 mph - N/A   Scattered Clouds
3:53 PM 25.0 °F 12.6 °F 14.0 °F 63% 30.17 in 10.0 mi NW 15.0 mph - N/A   Clear
4:53 PM 25.0 °F 15.5 °F 14.0 °F 63% 30.14 in 10.0 mi NW 9.2 mph - N/A   Clear
5:53 PM 24.1 °F 13.7 °F 14.0 °F 65% 30.13 in 10.0 mi NNW 10.4 mph - N/A   Clear
6:53 PM 24.1 °F 18.2 °F 14.0 °F 65% 30.11 in 10.0 mi NNW 4.6 mph - 0.01 in   Mostly Cloudy
7:53 PM 21.0 °F - 14.0 °F 74% 30.10 in 10.0 mi Calm Calm - N/A   Overcast
8:53 PM 19.9 °F - 14.0 °F 78% 30.09 in 10.0 mi Calm Calm - N/A   Mostly Cloudy
9:53 PM 19.9 °F - 14.0 °F 78% 30.08 in 10.0 mi Calm Calm - N/A   Scattered Clouds
10:53 PM 16.0 °F 7.4 °F 10.9 °F 81% 30.06 in 10.0 mi West 5.8 mph - N/A   Clear
11:53 PM 12.0 °F - 9.0 °F 88% 30.04 in 10.0 mi Calm Calm - N/A   Clear